Location: ?p Thanh B�nh
(16.5833°N, 107.5333°E)
Time: 10:05:07
(UTC+00:00)

Palapa 6 Rocket - Pass Details

Date: 29 October 2020
Orbit: 485 x 1217 km, 22.7° (Epoch: 23 November)

Event Time Altitude Azimuth Distance (km) Brightness Sun altitude
Exits shadow 21:50:54 20° 310° (NW) 1,166 4.0 -13.9°
Maximum altitude 21:52:47 32° 360° (N) 877 3.7 -13.5°
Drops below altitude 10° 21:56:29 10° 65° (ENE) 1,807 6.3 -12.6°
Sets 21:59:06 0° 75° (ENE) 2,798 7.7 -12.0°
